When you browse on this site, cookies collect data to enhance your experience and personalize the content and advertising you see.
Visit our Privacy Policy to learn more. By continuing to use the site, you agree to this use of cookies and data.
  • în România
  • Lista ţărilor
  • Pe 7 zile
  • Temperatura apei
  • Hartă satelitară
  • Meteo pe hartă
  • Widget-uri
  • user-avatar
    Intrare

    Meteo pe oră la Fofanovo

    Astăzi, 24 Martie, Duminică

    Timp Temperatura Precipitaţii Vânt Presiune Umiditate
    00:00 +1°C° 0.8 mm 3 m/s 743 mmHg 78%
    01:00 +1°C° 0.8 mm 3 m/s 742 mmHg 79%
    02:00 +1°C° 0 mm 3 m/s 741 mmHg 81%
    03:00 +1°C° 0.3 mm 3 m/s 740 mmHg 82%
    04:00 +1°C° 0.3 mm 3 m/s 740 mmHg 83%
    05:00 +1°C° 0.3 mm 3 m/s 739 mmHg 84%
    06:00 +1°C° 0 mm 3 m/s 739 mmHg 85%
    07:00 +1°C° 0 mm 4 m/s 739 mmHg 86%
    08:00 +1°C° 0 mm 4 m/s 739 mmHg 87%
    09:00 +3°C° 0 mm 4 m/s 739 mmHg 82%
    10:00 +2°C° 0 mm 5 m/s 739 mmHg 77%
    11:00 +3°C° 0 mm 5 m/s 739 mmHg 72%
    12:00 +3°C° 0.2 mm 5 m/s 739 mmHg 67%
    13:00 +5°C° 0.2 mm 5 m/s 739 mmHg 61%
    14:00 +4°C° 0.2 mm 6 m/s 738 mmHg 56%
    15:00 +5°C° 0 mm 5 m/s 739 mmHg 58%
    16:00 +4°C° 0 mm 4 m/s 739 mmHg 60%
    17:00 +4°C° 0 mm 3 m/s 739 mmHg 62%
    18:00 +2°C° 0 mm 3 m/s 739 mmHg 66%
    19:00 +1°C° 0 mm 3 m/s 739 mmHg 69%
    20:00 0°C° 0 mm 3 m/s 739 mmHg 72%
    21:00 +1°C° 0 mm 2 m/s 739 mmHg 74%
    22:00 -1°C° 0 mm 2 m/s 739 mmHg 76%
    23:00 -2°C° 0 mm 2 m/s 739 mmHg 79%

    Mâine, 25 Martie, Luni

    Timp Temperatura Precipitaţii Vânt Presiune Umiditate
    00:00 -2°C° 0 mm 2 m/s 739 mmHg 79%
    01:00 -2°C° 0 mm 2 m/s 739 mmHg 80%
    02:00 -3°C° 0 mm 2 m/s 739 mmHg 81%
    03:00 -3°C° 0 mm 2 m/s 739 mmHg 80%
    04:00 -3°C° 0 mm 2 m/s 739 mmHg 80%
    05:00 -3°C° 0 mm 2 m/s 738 mmHg 79%
    06:00 -2°C° 0 mm 3 m/s 738 mmHg 75%
    07:00 -1°C° 0 mm 3 m/s 738 mmHg 71%
    08:00 0°C° 0 mm 3 m/s 738 mmHg 66%
    09:00 +1°C° 0 mm 3 m/s 738 mmHg 60%
    10:00 +3°C° 0 mm 4 m/s 737 mmHg 53%
    11:00 +5°C° 0 mm 4 m/s 737 mmHg 47%
    12:00 +5°C° 0 mm 4 m/s 737 mmHg 46%
    13:00 +5°C° 0 mm 4 m/s 737 mmHg 45%
    14:00 +6°C° 0 mm 4 m/s 736 mmHg 44%
    15:00 +5°C° 0 mm 3 m/s 736 mmHg 49%
    16:00 +5°C° 0 mm 2 m/s 736 mmHg 55%
    17:00 +5°C° 0 mm 2 m/s 736 mmHg 61%
    18:00 +3°C° 0 mm 2 m/s 736 mmHg 66%
    19:00 +2°C° 0 mm 2 m/s 736 mmHg 71%
    20:00 -1°C° 0 mm 2 m/s 736 mmHg 76%
    21:00 -1°C° 0 mm 2 m/s 735 mmHg 77%
    22:00 -1°C° 0 mm 2 m/s 735 mmHg 78%
    23:00 -1°C° 0 mm 2 m/s 735 mmHg 79%

    Poimâine, 26 Martie, Marţi

    Timp Temperatura Precipitaţii Vânt Presiune Umiditate
    00:00 -1°C° 0 mm 2 m/s 735 mmHg 81%
    01:00 -1°C° 0 mm 2 m/s 735 mmHg 83%
    02:00 -1°C° 0 mm 2 m/s 735 mmHg 85%
    03:00 -1°C° 0.1 mm 2 m/s 734 mmHg 87%
    04:00 -1°C° 0.1 mm 2 m/s 734 mmHg 90%
    05:00 -2°C° 0.1 mm 2 m/s 734 mmHg 92%
    06:00 -1°C° 0.6 mm 3 m/s 734 mmHg 90%
    07:00 -1°C° 0.6 mm 3 m/s 734 mmHg 89%
    08:00 -2°C° 0.6 mm 4 m/s 734 mmHg 87%
    09:00 -2°C° 0.1 mm 4 m/s 734 mmHg 80%
    10:00 -1°C° 0.1 mm 4 m/s 734 mmHg 74%
    11:00 -1°C° 0.1 mm 4 m/s 735 mmHg 68%
    12:00 -1°C° 0.1 mm 4 m/s 735 mmHg 64%
    13:00 -1°C° 0.1 mm 4 m/s 735 mmHg 60%
    14:00 0°C° 0.1 mm 4 m/s 735 mmHg 56%
    15:00 0°C° 0 mm 3 m/s 735 mmHg 56%
    16:00 0°C° 0 mm 3 m/s 735 mmHg 56%
    17:00 +1°C° 0 mm 2 m/s 735 mmHg 56%
    18:00 -2°C° 0 mm 2 m/s 736 mmHg 61%
    19:00 -1°C° 0 mm 1 m/s 736 mmHg 67%
    20:00 -3°C° 0 mm 1 m/s 736 mmHg 72%
    21:00 -3°C° 0 mm 1 m/s 737 mmHg 73%
    22:00 -3°C° 0 mm 1 m/s 737 mmHg 74%
    23:00 -3°C° 0 mm 1 m/s 737 mmHg 75%

    27 Martie, Miercuri

    Timp Temperatura Precipitaţii Vânt Presiune Umiditate
    00:00 -5°C° 0 mm 2 m/s 738 mmHg 77%
    01:00 -4°C° 0 mm 2 m/s 738 mmHg 79%
    02:00 -5°C° 0 mm 3 m/s 739 mmHg 81%
    03:00 -5°C° 0 mm 3 m/s 739 mmHg 82%
    04:00 -7°C° 0 mm 4 m/s 740 mmHg 83%
    05:00 -7°C° 0 mm 4 m/s 740 mmHg 83%
    06:00 -5°C° 0.1 mm 4 m/s 741 mmHg 80%
    07:00 -6°C° 0.1 mm 5 m/s 741 mmHg 77%
    08:00 -5°C° 0.1 mm 5 m/s 742 mmHg 74%
    09:00 -4°C° 0.1 mm 5 m/s 742 mmHg 70%
    10:00 -4°C° 0.1 mm 6 m/s 743 mmHg 65%
    11:00 -3°C° 0.1 mm 6 m/s 743 mmHg 60%
    12:00 -3°C° 0 mm 6 m/s 744 mmHg 59%
    13:00 -2°C° 0 mm 6 m/s 744 mmHg 59%
    14:00 -2°C° 0 mm 6 m/s 745 mmHg 58%
    15:00 -1°C° 0 mm 5 m/s 745 mmHg 59%
    16:00 -1°C° 0 mm 5 m/s 746 mmHg 59%
    17:00 -1°C° 0 mm 4 m/s 746 mmHg 59%
    18:00 -1°C° 0 mm 3 m/s 747 mmHg 65%
    19:00 -4°C° 0 mm 3 m/s 748 mmHg 72%
    20:00 -4°C° 0 mm 2 m/s 748 mmHg 78%
    21:00 -4°C° 0 mm 2 m/s 748 mmHg 79%
    22:00 -4°C° 0 mm 2 m/s 749 mmHg 80%
    23:00 -5°C° 0 mm 2 m/s 749 mmHg 81%

    28 Martie, Joi

    Timp Temperatura Precipitaţii Vânt Presiune Umiditate
    00:00 -5°C° 0 mm 2 m/s 749 mmHg 81%
    01:00 -5°C° 0 mm 2 m/s 749 mmHg 81%
    02:00 -5°C° 0 mm 2 m/s 749 mmHg 81%
    03:00 -5°C° 0 mm 2 m/s 749 mmHg 80%
    04:00 -5°C° 0 mm 2 m/s 749 mmHg 78%
    05:00 -5°C° 0 mm 3 m/s 749 mmHg 76%
    06:00 -4°C° 0 mm 3 m/s 749 mmHg 70%
    07:00 -2°C° 0 mm 3 m/s 750 mmHg 65%
    08:00 -2°C° 0 mm 4 m/s 750 mmHg 59%
    09:00 -1°C° 0 mm 4 m/s 749 mmHg 56%
    10:00 +1°C° 0 mm 4 m/s 749 mmHg 54%
    11:00 +2°C° 0 mm 5 m/s 749 mmHg 51%
    12:00 +3°C° 0 mm 5 m/s 749 mmHg 51%
    13:00 +5°C° 0 mm 5 m/s 748 mmHg 51%
    14:00 +5°C° 0 mm 5 m/s 748 mmHg 51%
    15:00 +5°C° 0 mm 4 m/s 748 mmHg 57%
    16:00 +4°C° 0 mm 4 m/s 747 mmHg 62%
    17:00 +4°C° 0 mm 3 m/s 747 mmHg 67%
    18:00 +3°C° 0 mm 4 m/s 747 mmHg 73%
    19:00 +1°C° 0 mm 4 m/s 746 mmHg 79%
    20:00 0°C° 0 mm 4 m/s 746 mmHg 85%
    21:00 0°C° 0 mm 4 m/s 745 mmHg 85%
    22:00 0°C° 0 mm 5 m/s 745 mmHg 85%
    23:00 +1°C° 0 mm 5 m/s 744 mmHg 85%

    29 Martie, Vineri

    Timp Temperatura Precipitaţii Vânt Presiune Umiditate
    00:00 +1°C° 0 mm 6 m/s 744 mmHg 85%
    01:00 +1°C° 0 mm 6 m/s 743 mmHg 85%
    02:00 +1°C° 0 mm 6 m/s 742 mmHg 86%
    03:00 +1°C° 0.1 mm 6 m/s 742 mmHg 84%
    04:00 +1°C° 0.1 mm 6 m/s 742 mmHg 83%
    05:00 +1°C° 0.1 mm 6 m/s 742 mmHg 81%
    06:00 -1°C° 0 mm 6 m/s 743 mmHg 77%
    07:00 -1°C° 0 mm 6 m/s 743 mmHg 72%
    08:00 -2°C° 0 mm 6 m/s 744 mmHg 68%
    09:00 -1°C° 0 mm 6 m/s 744 mmHg 66%
    10:00 +1°C° 0 mm 6 m/s 745 mmHg 65%
    11:00 +2°C° 0 mm 6 m/s 745 mmHg 63%
    12:00 +2°C° 0 mm 6 m/s 746 mmHg 63%
    13:00 +3°C° 0 mm 5 m/s 746 mmHg 62%
    14:00 +3°C° 0 mm 5 m/s 747 mmHg 62%
    15:00 +4°C° 0 mm 4 m/s 747 mmHg 64%
    16:00 +4°C° 0 mm 4 m/s 747 mmHg 65%
    17:00 +4°C° 0 mm 3 m/s 748 mmHg 67%
    18:00 +2°C° 0 mm 3 m/s 748 mmHg 73%
    19:00 +2°C° 0 mm 2 m/s 748 mmHg 80%
    20:00 +1°C° 0 mm 2 m/s 748 mmHg 86%
    21:00 -1°C° 0 mm 2 m/s 749 mmHg 87%
    22:00 +1°C° 0 mm 1 m/s 749 mmHg 88%
    23:00 +1°C° 0 mm 1 m/s 749 mmHg 89%
    Arată mai mult